Bennett, CO

10:22 AM MST on February 23, 2017 (GMT -0700)
Front Range

Weather History for KFTG - April, 2013

Change the Weather History Date:

Monday, April 22, 2013

  Actual Average (KDEN) Record (KDEN)
Temperature  
Mean Temperature 37 °F -  
Max Temperature 50 °F 64 °F 88 °F (1989)
Min Temperature 24 °F 37 °F 21 °F (2013)
Degree Days  
Heating Degree Days 28    
Moisture  
Dew Point 31 °F    
Average Humidity 79    
Maximum Humidity 93    
Minimum Humidity 54    
Precipitation  
Precipitation 0.00 in - - ()
Sea Level Pressure  
Sea Level Pressure 30.05 in    
Wind  
Wind Speed 10 mph (NNE)    
Max Wind Speed 28 mph    
Max Gust Speed 34 mph    
Visibility 7 miles    
Events Rain , Snow    
Averages and records for this station are not official NWS values.
T = Trace of Precipitation, MM = Missing Value Source: NWS Daily Summary

Daily Weather History Graph

Daily Weather History Graph

Search for Another Location

Airport or City:

Trip Planner

Search our weather history database for the weather conditions in past years. The results will help you decide how hot, cold, wet, or windy it might be!

Date:

Astronomy

Apr. 22, 2013 Rise Set
Actual Time 6:10 AM MDT 7:43 PM MDT
Civil Twilight 5:41 AM MDT 8:12 PM MDT
Nautical Twilight 5:07 AM MDT 8:46 PM MDT
Astronomical Twilight 4:30 AM MDT 9:23 PM MDT
Moon 4:35 PM MDT (4/22) 4:05 AM MDT (4/22)
Length of Visible Light 14h 30m
Length of Day
13h 33m
Waxing Gibbous, 88% of the Moon is Illuminated
Apr 22
Waxing Gibbous
Apr 25
Full
May 2
Last Quarter
May 9
New
May 17
First Quarter

Hourly Weather History & Observations

Time (MDT) Temp. Windchill Dew Point Humidity Pressure Visibility Wind Dir Wind Speed Gust Speed Precip Events Conditions
12:00 AM 44.6 °F 39.7 °F 35.6 °F 71% 29.99 in 10.0 mi South 9.2 mph - N/A   Clear
12:20 AM 42.8 °F 38.6 °F 35.6 °F 76% 29.98 in 10.0 mi South 6.9 mph - N/A   Clear
12:39 AM 42.8 °F 40.1 °F 35.6 °F 76% 29.97 in 10.0 mi South 4.6 mph - N/A   Clear
1:00 AM 44.6 °F 38.8 °F 33.8 °F 66% 29.96 in 10.0 mi South 11.5 mph - N/A   Clear
1:20 AM 44.6 °F 38.8 °F 33.8 °F 66% 29.96 in 10.0 mi South 11.5 mph - N/A   Clear
1:40 AM 46.4 °F 40.4 °F 33.8 °F 62% 29.95 in 10.0 mi South 13.8 mph - N/A   Scattered Clouds
2:00 AM 46.4 °F 41.1 °F 32.0 °F 57% 29.94 in 10.0 mi South 11.5 mph - N/A   Mostly Cloudy
2:20 AM 48.2 °F - 32.0 °F 54% 29.95 in 10.0 mi SSW 11.5 mph - N/A   Overcast
2:39 AM 42.8 °F 38.6 °F 32.0 °F 66% 29.95 in 10.0 mi WNW 6.9 mph - N/A   Scattered Clouds
2:59 AM 46.4 °F 41.9 °F 32.0 °F 57% 29.94 in 10.0 mi West 9.2 mph - N/A   Scattered Clouds
3:20 AM 44.6 °F - 32.0 °F 61% 29.93 in 10.0 mi Calm Calm - N/A   Clear
3:40 AM 42.8 °F 41.1 °F 32.0 °F 66% 29.93 in 10.0 mi ENE 3.5 mph - N/A   Clear
4:00 AM 44.6 °F 40.2 °F 32.0 °F 61% 29.92 in 10.0 mi SSE 8.1 mph - N/A   Clear
4:19 AM 41.0 °F 35.2 °F 32.0 °F 70% 29.91 in 10.0 mi SSW 9.2 mph - N/A   Clear
4:40 AM 44.6 °F 38.8 °F 32.0 °F 61% 29.90 in 10.0 mi SSW 11.5 mph - N/A   Mostly Cloudy
5:00 AM 42.8 °F 37.0 °F 32.0 °F 66% 29.90 in 10.0 mi SW 10.4 mph - N/A   Scattered Clouds
5:20 AM 39.2 °F 33.6 °F 32.0 °F 75% 29.92 in 10.0 mi West 8.1 mph - N/A   Scattered Clouds
5:39 AM 41.0 °F 31.9 °F 32.0 °F 70% 29.96 in 10.0 mi WNW 19.6 mph 27.6 mph N/A   Mostly Cloudy
6:00 AM 42.8 °F 35.4 °F 35.6 °F 76% 29.93 in 10.0 mi North 15.0 mph 23.0 mph N/A   Overcast
6:20 AM 41.0 °F 34.3 °F 37.4 °F 87% 29.93 in 10.0 mi NNE 11.5 mph - N/A   Scattered Clouds
6:40 AM 41.0 °F 34.3 °F 37.4 °F 87% 29.95 in 10.0 mi NNE 11.5 mph - N/A   Scattered Clouds
6:50 AM 41.0 °F 35.2 °F 37.4 °F 87% 29.95 in 40.0 mi NNE 9.2 mph - N/A   Mostly Cloudy
6:56 AM 41.0 °F 35.8 °F 37.4 °F 87% 29.95 in 10.0 mi NE 8.1 mph - N/A   Scattered Clouds
7:53 AM 44.6 °F 43.1 °F 37.4 °F 76% 29.95 in 40.0 mi SSE 3.5 mph - N/A   Mostly Cloudy
9:50 AM 50.0 °F - 37.4 °F 62% 29.97 in 50.0 mi North 9.2 mph - N/A   Mostly Cloudy
11:47 AM 35.6 °F 23.0 °F 32.0 °F 87% 30.06 in 7.0 mi North 27.6 mph 34.5 mph N/A Rain Light Rain
1:48 PM 30.2 °F 17.8 °F 28.4 °F 93% 30.12 in 1.0 mi North 19.6 mph - N/A Snow Light Snow
2:48 PM 30.2 °F 18.5 °F 28.4 °F 93% 30.14 in 2.0 mi NNE 17.3 mph - N/A Snow Light Snow
3:50 PM 30.2 °F 20.8 °F 26.6 °F 86% 30.16 in 10.0 mi NNE 11.5 mph - N/A   Overcast
4:48 PM 30.2 °F 17.8 °F 26.6 °F 86% 30.16 in 2.0 mi NNE 19.6 mph - N/A Snow Light Snow
5:53 PM 28.4 °F 15.8 °F 24.8 °F 86% 30.20 in 2.0 mi NE 18.4 mph - N/A Snow Light Snow
6:48 PM 26.6 °F 15.7 °F 24.8 °F 93% 30.19 in 1.0 mi NNE 12.7 mph - N/A Snow Light Snow
7:48 PM 26.6 °F 21.2 °F 24.8 °F 93% 30.24 in 2.0 mi North 4.6 mph - N/A Snow Light Snow
9:00 PM 26.6 °F 15.7 °F 24.8 °F 93% 30.24 in 10.0 mi NNE 12.7 mph - N/A   Overcast
9:20 PM 26.6 °F 17.5 °F 24.8 °F 93% 30.26 in 1.0 mi NNE 9.2 mph - N/A Snow Snow
9:39 PM 26.6 °F 16.8 °F 24.8 °F 93% 30.28 in 0.8 mi North 10.4 mph - N/A Snow Snow
10:00 PM 26.6 °F 18.2 °F 24.8 °F 93% 30.28 in 0.8 mi NNE 8.1 mph - N/A Snow Snow
10:19 PM 26.6 °F 16.8 °F 24.8 °F 93% 30.28 in 0.5 mi North 10.4 mph - N/A Snow Heavy Snow
10:40 PM 24.8 °F 16.1 °F 23.0 °F 93% 30.26 in 1.5 mi NE 8.1 mph - N/A Snow Light Snow
11:00 PM 24.8 °F 17.9 °F 23.0 °F 93% 30.27 in 3.0 mi NE 5.8 mph - N/A Snow Light Snow
11:19 PM 24.8 °F 16.1 °F 23.0 °F 93% 30.24 in 4.0 mi NE 8.1 mph - N/A Snow Light Snow
11:40 PM 24.8 °F 17.9 °F 23.0 °F 93% 30.24 in 7.0 mi NE 5.8 mph - N/A Snow Light Snow